TimeCST,TemperatureF,Dew PointF,Humidity,Sea Level PressureIn,VisibilityMPH,Wind Direction,Wind SpeedMPH,Gust SpeedMPH,PrecipitationIn,Events,Conditions,WindDirDegrees,DateUTC
12:15 AM,23.0,18.9,84,29.75,10.0,WNW,10.4,-,N/A,,Overcast,300,2012-12-17 06:15:00
12:35 AM,23.0,19.0,85,29.75,10.0,WNW,12.7,-,N/A,,Overcast,300,2012-12-17 06:35:00
12:55 AM,23.0,18.9,84,29.75,10.0,WNW,12.7,-,N/A,,Overcast,300,2012-12-17 06:55:00
1:15 AM,23.0,18.7,84,29.75,10.0,WNW,11.5,-,N/A,,Overcast,300,2012-12-17 07:15:00
1:35 AM,23.0,18.5,83,29.75,10.0,WNW,11.5,-,N/A,,Overcast,300,2012-12-17 07:35:00
1:55 AM,23.4,18.9,83,29.75,10.0,WNW,12.7,-,N/A,,Overcast,290,2012-12-17 07:55:00
2:15 AM,23.4,18.5,82,29.76,10.0,WNW,9.2,-,N/A,,Overcast,290,2012-12-17 08:15:00
2:35 AM,23.4,18.3,81,29.76,10.0,WNW,9.2,-,N/A,,Overcast,290,2012-12-17 08:35:00
3:15 AM,23.4,18.1,80,29.76,10.0,WNW,5.8,-,N/A,,Overcast,290,2012-12-17 09:15:00
3:35 AM,23.4,18.1,80,29.75,10.0,WNW,6.9,-,N/A,,Overcast,300,2012-12-17 09:35:00
3:55 AM,23.4,18.1,80,29.75,10.0,WNW,6.9,-,N/A,,Overcast,290,2012-12-17 09:55:00
4:15 AM,23.4,18.1,80,29.75,10.0,WNW,6.9,-,N/A,,Overcast,300,2012-12-17 10:15:00
4:35 AM,23.0,17.8,80,29.74,10.0,WNW,5.8,-,N/A,,Overcast,290,2012-12-17 10:35:00
4:55 AM,23.0,18.1,82,29.75,10.0,West,6.9,-,N/A,,Overcast,280,2012-12-17 10:55:00
5:15 AM,23.0,18.1,82,29.74,10.0,WNW,8.1,-,N/A,,Overcast,290,2012-12-17 11:15:00
5:35 AM,23.0,18.1,82,29.75,10.0,West,8.1,-,N/A,,Overcast,280,2012-12-17 11:35:00
5:55 AM,23.0,18.1,82,29.75,10.0,WNW,8.1,-,N/A,,Overcast,290,2012-12-17 11:55:00
6:15 AM,23.0,18.1,82,29.75,10.0,WNW,10.4,-,N/A,,Overcast,290,2012-12-17 12:15:00
6:35 AM,23.0,18.0,81,29.75,10.0,WNW,9.2,-,N/A,,Overcast,290,2012-12-17 12:35:00
6:55 AM,23.0,18.1,82,29.75,10.0,WNW,8.1,-,N/A,,Overcast,300,2012-12-17 12:55:00
7:15 AM,23.0,18.1,82,29.74,10.0,WNW,9.2,-,N/A,,Overcast,300,2012-12-17 13:15:00
7:35 AM,23.0,18.1,82,29.74,10.0,WNW,9.2,-,N/A,,Overcast,290,2012-12-17 13:35:00
7:55 AM,23.0,18.3,82,29.74,10.0,West,8.1,-,N/A,,Overcast,280,2012-12-17 13:55:00
8:15 AM,23.0,18.5,83,29.74,10.0,West,5.8,-,N/A,,Overcast,280,2012-12-17 14:15:00
8:35 AM,23.0,18.3,82,29.74,10.0,WNW,6.9,-,N/A,,Overcast,290,2012-12-17 14:35:00
8:55 AM,23.0,18.3,82,29.74,10.0,West,4.6,-,N/A,,Overcast,280,2012-12-17 14:55:00
9:15 AM,23.4,18.5,82,29.75,10.0,West,5.8,-,N/A,,Overcast,260,2012-12-17 15:15:00
9:35 AM,23.5,18.5,81,29.75,10.0,West,5.8,-,N/A,,Overcast,270,2012-12-17 15:35:00
9:55 AM,23.9,18.7,80,29.75,10.0,WSW,6.9,-,N/A,,Overcast,250,2012-12-17 15:55:00
10:15 AM,24.3,18.5,79,29.75,10.0,West,8.1,-,N/A,,Overcast,270,2012-12-17 16:15:00
10:35 AM,24.4,18.7,79,29.75,10.0,West,6.9,-,N/A,,Overcast,260,2012-12-17 16:35:00
10:55 AM,24.8,18.9,78,29.75,10.0,WSW,9.2,-,N/A,,Overcast,250,2012-12-17 16:55:00
11:15 AM,24.8,18.7,78,29.74,10.0,West,8.1,-,N/A,,Overcast,280,2012-12-17 17:15:00
11:35 AM,25.3,19.0,77,29.74,10.0,West,6.9,-,N/A,,Overcast,270,2012-12-17 17:35:00
11:55 AM,25.7,19.4,77,29.73,10.0,West,9.2,-,N/A,,Overcast,270,2012-12-17 17:55:00
12:15 PM,25.7,19.2,76,29.73,10.0,West,9.2,-,N/A,,Overcast,280,2012-12-17 18:15:00
12:35 PM,26.1,19.4,76,29.72,10.0,West,8.1,-,N/A,,Overcast,260,2012-12-17 18:35:00
12:55 PM,26.2,19.4,75,29.71,10.0,West,9.2,-,N/A,,Overcast,280,2012-12-17 18:55:00
1:15 PM,26.2,18.5,73,29.71,10.0,WSW,5.8,-,N/A,,Overcast,250,2012-12-17 19:15:00
1:35 PM,26.4,18.5,72,29.70,10.0,West,4.6,-,N/A,,Overcast,280,2012-12-17 19:35:00
1:55 PM,26.2,18.0,71,29.69,10.0,WNW,5.8,-,N/A,,Overcast,300,2012-12-17 19:55:00
2:15 PM,25.7,17.8,72,29.69,10.0,West,5.8,-,N/A,,Overcast,280,2012-12-17 20:15:00
2:35 PM,25.2,16.9,71,29.69,10.0,WNW,3.5,-,N/A,,Overcast,290,2012-12-17 20:35:00
2:55 PM,24.8,17.4,74,29.70,10.0,WNW,3.5,-,N/A,,Mostly Cloudy,290,2012-12-17 20:55:00
3:15 PM,25.2,16.9,71,29.70,10.0,NW,3.5,-,N/A,,Overcast,310,2012-12-17 21:15:00
3:35 PM,25.2,17.4,72,29.71,10.0,SW,3.5,-,N/A,,Overcast,230,2012-12-17 21:35:00
3:55 PM,24.8,17.2,73,29.70,10.0,West,4.6,-,N/A,,Overcast,260,2012-12-17 21:55:00
6:35 PM,23.0,18.1,82,29.73,10.0,SW,6.9,-,N/A,,Overcast,220,2012-12-18 00:35:00
6:55 PM,22.8,18.0,82,29.73,10.0,SW,6.9,-,N/A,,Overcast,220,2012-12-18 00:55:00
7:15 PM,22.3,18.0,83,29.73,10.0,SW,6.9,-,N/A,,Overcast,230,2012-12-18 01:15:00
7:35 PM,22.1,18.0,84,29.74,10.0,SW,8.1,-,N/A,,Overcast,230,2012-12-18 01:35:00
7:55 PM,21.9,17.6,83,29.74,10.0,SW,6.9,-,N/A,,Overcast,220,2012-12-18 01:55:00
8:15 PM,21.7,17.6,84,29.73,10.0,SW,4.6,-,N/A,,Overcast,230,2012-12-18 02:15:00
8:35 PM,21.7,17.6,84,29.73,10.0,SSW,4.6,-,N/A,,Overcast,200,2012-12-18 02:35:00
8:55 PM,21.2,17.6,86,29.73,10.0,WSW,4.6,-,N/A,,Overcast,240,2012-12-18 02:55:00
9:15 PM,21.2,17.4,85,29.73,10.0,West,4.6,-,N/A,,Overcast,260,2012-12-18 03:15:00
9:35 PM,21.2,17.8,87,29.73,10.0,Calm,Calm,-,N/A,,Overcast,0,2012-12-18 03:35:00
9:55 PM,20.8,17.6,87,29.73,10.0,SSW,3.5,-,N/A,,Overcast,210,2012-12-18 03:55:00
10:15 PM,20.7,17.6,88,29.73,10.0,WSW,3.5,-,N/A,,Overcast,250,2012-12-18 04:15:00
10:35 PM,20.8,17.8,88,29.73,10.0,West,3.5,-,N/A,,Overcast,280,2012-12-18 04:35:00
10:55 PM,20.8,18.1,89,29.73,10.0,West,3.5,-,N/A,,Overcast,280,2012-12-18 04:55:00
11:15 PM,20.8,18.0,89,29.73,10.0,West,3.5,-,N/A,,Overcast,270,2012-12-18 05:15:00
11:35 PM,20.8,18.0,89,29.72,10.0,West,3.5,-,N/A,,Overcast,270,2012-12-18 05:35:00
11:55 PM,20.8,18.0,89,29.72,10.0,Calm,Calm,-,N/A,,Overcast,0,2012-12-18 05:55:00